#timestamp,LO_Frequency,Hit,StdDev 
1698649215.6,286046999.8,N
1698649235.4,286047000.4,N
1698649255.3,286047000.5,N
1698649275.1,286047000.6,N
1698649276.0,286047000.6,N
1698649295.8,286046999.7,N
1698649315.7,286047000.0,N
1698649335.5,286047001.0,N
1698649355.3,286046998.2,N
1698649375.2,286047000.8,N
1698649395.0,286047001.2,N
1698649395.9,286047001.2,N
1698649415.8,286047000.3,N
1698649435.6,286047002.3,N
1698649455.4,286047001.7,N
1698649475.3,286047001.9,N
1698649495.1,286047001.9,N
1698649515.9,286047002.0,N
1698649535.7,286047002.6,N
1698649555.5,286047000.0,N
1698649575.4,286047001.9,N
1698649595.2,286047002.6,N
1698649615.0,286047000.2,N
1698649616.0,286047000.2,N
1698649635.8,286047000.1,N
1698649655.6,286047002.8,N
1698649675.5,286047002.5,N
1698649695.3,286047002.3,N
1698649715.2,286047002.1,N
1698649735.9,286046999.9,N
1698649755.7,286047000.0,N
1698649775.6,286046999.9,N
1698649795.4,286047001.0,N
1698649815.2,286047000.4,N
1698649835.1,286047002.8,N
1698649836.0,286047002.8,N
1698649855.8,286047000.6,N
1698649875.7,286046999.7,N
1698649895.5,286047002.7,N
1698649915.3,286047000.2,N
1698649935.2,286047002.6,N
1698649955.0,286046999.9,N
1698649955.9,286046999.9,N
1698649975.7,286047000.2,N
1698649995.6,286047002.7,N
1698650015.4,286047001.9,N
1698650035.3,286047001.8,N
1698650055.1,286047002.3,N
1698650056.0,286047002.3,N
1698650075.8,286046999.7,N
1698650095.7,286047000.0,N
1698650115.5,286046999.8,N
1698650135.3,286046998.5,N
1698650155.2,286047000.8,N
1698650175.0,286047000.8,N
1698650175.9,286047000.8,N
1698650195.8,286047001.1,N
1698650215.6,286046998.8,N
1698650235.4,286047001.2,N
1698650255.3,286047001.2,N
1698650275.1,286047000.5,N
1698650295.8,286047002.5,N
1698650315.7,286047001.9,N
1698650335.5,286047002.6,N
1698650355.4,286047001.9,N
1698650375.2,286047002.5,N
1698650395.0,286047002.2,N
1698650395.9,286047002.2,N
1698650415.8,286047001.9,N
1698650435.6,286047001.7,N
1698650455.5,286047003.7,Y
1698650475.3,286047002.1,P
1698650495.1,286047002.5,P
1698650515.9,286047002.6,P
1698650535.7,286047002.4,Y
1698650555.5,286047001.0,P
1698650575.4,286046998.4,N
1698650595.2,286046999.8,N
1698650615.1,286047000.6,N
1698650616.0,286047000.6,N
1698650635.8,286046998.6,N
1698650655.6,286046999.3,N
1698650675.5,286046998.5,N
1698650695.3,286047000.7,N
1698650715.1,286046998.1,N
1698650735.9,286046998.1,N
1698650755.7,286046998.3,N
1698650775.6,286046998.5,N
1698650795.4,286046998.4,N
1698650815.2,286046999.2,N
1698650835.1,286046999.0,N
1698650836.0,286046999.0,N
1698650855.8,286046999.5,N
1698650875.7,286046996.8,N
1698650895.5,286046999.1,N
1698650915.3,286046997.5,N
1698650935.2,286046997.4,N
1698650955.0,286046997.2,N
1698650955.9,286046997.2,N
1698650975.8,286046996.6,N
1698650995.6,286046999.5,N
1698651015.4,286046996.9,N
1698651035.3,286046999.2,N
1698651055.1,286046998.9,N
1698651075.9,286046999.5,N
1698651095.7,286046996.6,N
1698651115.5,286046998.9,N
1698651135.4,286046999.2,N
1698651155.2,286046998.4,N
1698651175.0,286046998.4,N
1698651175.9,286046998.4,N
1698651195.8,286046998.3,N
1698651215.6,286046999.5,N
1698651235.5,286046998.9,N
1698651255.3,286046998.8,N
1698651275.1,286047001.2,N
1698651295.9,286047000.0,N
1698651315.7,286047000.0,N
1698651335.5,286047000.3,N
1698651355.4,286046999.8,N
1698651375.2,286047000.3,N
1698651395.1,286047000.3,N
1698651396.0,286047000.3,N
1698651415.8,286046999.9,N
1698651435.6,286047000.0,N
1698651455.5,286047000.4,N
1698651475.3,286047000.0,N
1698651495.1,286047000.4,N
1698651515.9,286047002.8,N
1698651535.7,286047000.5,N
1698651555.6,286047000.8,N
1698651575.4,286047000.7,N
1698651595.2,286047002.8,N
1698651615.1,286047000.2,N
1698651616.0,286047000.2,N
1698651635.8,286047000.5,N
1698651655.6,286046999.8,N
1698651675.5,286046999.7,N
1698651695.3,286047001.6,N
1698651715.2,286047002.4,N
1698651735.9,286047002.6,N
1698651755.7,286047000.2,N
1698651775.6,286047000.8,N
1698651795.4,286047001.1,N
1698651815.3,286047000.0,N
1698651835.1,286047000.5,N
1698651855.8,286046998.3,N
1698651875.7,286046998.5,N
1698651895.5,286047001.0,N
1698651915.3,286047002.8,N
1698651935.2,286047002.3,N
1698651955.0,286047002.4,N
1698651955.9,286047002.4,N
1698651975.8,286047002.5,N
1698651995.6,286047002.5,N
1698652015.4,286047002.8,N
1698652035.3,286047000.6,N
1698652055.1,286046998.8,N
1698652075.9,286046998.5,N
1698652095.7,286047000.6,N
1698652115.5,286046998.2,N
1698652135.4,286047000.6,N
1698652155.2,286047000.5,N
1698652175.0,286046998.1,N
1698652175.9,286046998.1,N
1698652195.8,286046998.6,N
1698652215.6,286046998.1,N
1698652235.5,286047000.7,N
1698652255.3,286046999.5,N
1698652275.2,286046998.4,N
1698652295.9,286047000.6,N
1698652315.7,286046999.8,N
1698652335.6,286047000.9,N
1698652355.4,286046998.8,N
1698652375.3,286047001.2,N
1698652395.1,286047000.5,N
1698652396.0,286047000.5,N
1698652415.8,286047000.5,N
1698652435.7,286047000.9,N
1698652455.5,286047001.0,N
1698652475.3,286047000.7,N
1698652495.2,286046998.2,N
1698652515.0,286046998.7,N
1698652515.9,286046998.7,N
1698652535.8,286047000.6,N
1698652555.6,286047000.3,N
1698652575.4,286047002.1,N
1698652595.3,286047001.5,N
1698652615.1,286047002.8,N
1698652635.9,286047002.5,N
1698652655.7,286047002.6,N
1698652675.5,286047001.9,N
1698652695.4,286047001.4,N
1698652715.2,286047001.4,N
1698652735.1,286047001.6,N
1698652736.0,286047001.6,N
1698652755.8,286047001.5,N
1698652775.6,286047002.6,N
1698652795.5,286047002.4,N
